User: anonymous   Login
Location: Arbon
(43.0005°N, 0.7472°E)
Time: 12:37:22
(UTC+00:00)
Language:

Courier 1B Rocket - Orbit

View from above orbital plane
View from above orbital plane
View from above satellite
View from above satellite

Ground track
Ground track

The orbit data is extracted from the following two-line orbital elements,

1 00059U 60013B   21131.88131244  .00000118  00000-0  37977-4 0  9990
2 00059  28.2501 331.1359 0189178 162.8092 197.8965 13.52984758990871
Epoch (UTC): 11 May 2021 21:09:05
Eccentricity: 0.0189178
inclination: 28.2501°
perigee height: 920 km
apogee height: 1202 km
right ascension of ascending node: 331.1359°
argument of perigee: 162.8092°
revolutions per day: 13.52984758
mean anomaly at epoch: 197.8965°
orbit number at epoch: 99087

The dashed part of the orbit path shows where the satellite is in the earth's shadow,  

DLR